Location: Baia Mare
(47.6567°N, 23.5850°E)
Time: 10:59:15
(UTC+03:00)

ISS - Pass Details

Date: 16 July 2018
Orbit: 402 x 408 km, 51.6° (Epoch: 19 July)

Event Time Altitude Azimuth Distance (km) Brightness Sun altitude
Exits shadow 03:31:53 - 284° (WNW) 2,012 -0.5 -15.9°
Reaches altitude 10° 03:33:16 10° 290° (WNW) 1,470 -1.1 -15.7°
Maximum altitude 03:36:23 39° 1° (N) 628 -2.4 -15.5°
Drops below altitude 10° 03:39:31 10° 73° (ENE) 1,472 -0.3 -15.2°
Sets 03:41:41 0° 81° (E) 2,333 0.6 -15.0°
